Flag for U.S.A. Weather past 2 weeks in Worcester, Massachusetts, U.S.A.

Now
82 °F

Scattered clouds.


Feels Like: 83 °F
Forecast: 63 / 87 °F
Wind: 9 mph from West

Location: Worcester Regional Airport

Current Time: Jul 22, 2014 at 4:35:07 PM

Latest Report: Jul 22, 2014 at 12:54 PM


Visibility: 10 mi

Pressure: 30.14 "Hg

Humidity: 48%

Dew point: 61 °F

Location of WorcesterLocation

Historic Weather in Worcester — Graph

°F

Worcester temperature yesterday

Maximum temperature yesterday: 78 °F (at 4:54 PM)
Minimum temperature yesterday: 57 °F (at 6:54 AM)
Average temperature yesterday: 68 °F

Past Weeks' High & Low Weather Summary

 TemperatureHumidityPressure
High85 °F (Jul 8, 3:54 PM)100% (Jul 21, 6:54 AM)30.29 "Hg (Jul 21, 6:54 AM)
Low57 °F (Jul 21, 6:54 AM)36% (Jul 18, 4:54 PM)29.69 "Hg (Jul 9, 12:54 AM)
Average71 °F71%30.03 "Hg
* Reported Jul 7 12:54 PM — Jul 22 12:54 PM, Worcester, Weather by CustomWeather, © 2014

Note: Actual official high and low records may vary slightly from our data, if they occured in-between our weather recording intervals... More about our weather records

Advertising

Worcester weather history for previous 24 hours

 ConditionsComfort  
Time TempWeatherWind HumidityBarometerVisibility
12:54 PM
Jul 22
82 °FScattered clouds.9 mph49%30.13 "Hg10 mi
11:54 AM80 °FScattered clouds.8 mph58%30.14 "Hg10 mi
10:54 AM80 °FSunny.8 mph60%30.15 "Hg10 mi
9:54 AM77 °FSunny.8 mph66%30.15 "Hg10 mi
8:54 AM73 °FSunny.6 mph74%30.16 "Hg10 mi
7:54 AM68 °FSunny.9 mph82%30.17 "Hg10 mi
6:54 AM65 °FSunny.12 mph87%30.16 "Hg10 mi
5:54 AM64 °FClear.8 mph90%30.16 "Hg10 mi
4:54 AM64 °FClear.10 mph90%30.15 "Hg10 mi
3:54 AM63 °FClear.10 mph93%30.15 "Hg10 mi
2:54 AM64 °FClear.9 mph90%30.15 "Hg10 mi
1:54 AM65 °FClear.10 mph85%30.16 "Hg10 mi
12:54 AM64 °FClear.9 mph84%30.17 "Hg10 mi
11:54 PM
Jul 21
65 °FClear.7 mph87%30.17 "Hg10 mi
10:54 PM66 °FClear.8 mph84%30.19 "Hg10 mi
9:54 PM69 °FClear.7 mph68%30.19 "Hg10 mi
8:54 PM72 °FSunny.7 mph64%30.18 "Hg10 mi
7:54 PM73 °FSunny.6 mph59%30.18 "Hg10 mi
6:54 PM76 °FPassing clouds.5 mph50%30.17 "Hg10 mi
5:54 PM78 °FPassing clouds.3 mph45%30.16 "Hg10 mi
4:54 PM78 °FSunny.3 mph45%30.16 "Hg10 mi
Weather by CustomWeather, © 2014

See weather overviewHow to use our weather pages